Danville, IN

12:46 PM EST on January 21, 2018 (GMT -0500)
Vermilion County

Weather History for KDNV - December, 2012

Change the Weather History Date:

Saturday, December 8, 2012

  Actual Average (KLAF) Record (KLAF)
Temperature  
Mean Temperature 42 °F -  
Max Temperature 45 °F 40 °F 65 °F (1966)
Min Temperature 38 °F 27 °F 3 °F (2010)
Degree Days  
Heating Degree Days 24    
Moisture  
Dew Point 41 °F    
Average Humidity 94    
Maximum Humidity 100    
Minimum Humidity 87    
Precipitation  
Precipitation 0.01 in - - ()
Sea Level Pressure  
Sea Level Pressure 29.93 in    
Wind  
Wind Speed 4 mph (North)    
Max Wind Speed 10 mph    
Max Gust Speed -    
Visibility 5 miles    
Events Fog , Rain    
Averages and records for this station are not official NWS values.
T = Trace of Precipitation, MM = Missing Value Source: NWS Daily Summary

Daily Weather History Graph

Daily Weather History Graph

Search for Another Location

Airport or City:

Trip Planner

Search our weather history database for the weather conditions in past years. The results will help you decide how hot, cold, wet, or windy it might be!

Date:

Astronomy

Dec. 08, 2012 Rise Set
Actual Time 7:00 AM CST 4:24 PM CST
Civil Twilight 6:30 AM CST 4:54 PM CST
Nautical Twilight 5:56 AM CST 5:28 PM CST
Astronomical Twilight 5:23 AM CST 6:01 PM CST
Moon 1:24 AM CST (12/8) 12:54 PM CST (12/8)
Length of Visible Light 10h 24m
Length of Day
9h 23m
Waning Crescent, 28% of the Moon is Illuminated
Dec 8
Waning Crescent
Dec 13
New
Dec 19
First Quarter
Dec 28
Full
Jan 4
Last Quarter

Hourly Weather History & Observations

Time (CST) Temp. Windchill Dew Point Humidity Pressure Visibility Wind Dir Wind Speed Gust Speed Precip Events Conditions
12:15 AM 45.1 °F - 44.2 °F 97% 29.82 in 1.5 mi Calm Calm - N/A   Overcast
12:35 AM 45.1 °F - 44.2 °F 97% 29.83 in 1.2 mi Calm Calm - N/A   Overcast
12:55 AM 45.1 °F - 44.2 °F 97% 29.82 in 0.5 mi Calm Calm - N/A Fog Fog
1:15 AM 45.0 °F - 44.2 °F 97% 29.80 in 0.2 mi Calm Calm - N/A Rain Light Rain
1:35 AM 45.0 °F - 44.2 °F 97% 29.81 in 0.2 mi Calm Calm - N/A Fog Fog
1:55 AM 45.0 °F 43.5 °F 44.2 °F 97% 29.81 in 0.5 mi NNE 3.5 mph - N/A Fog Fog
2:15 AM 45.0 °F 43.5 °F 44.2 °F 97% 29.81 in 0.2 mi North 3.5 mph - N/A Fog Fog
2:35 AM 45.0 °F 43.5 °F 44.2 °F 97% 29.81 in 0.2 mi NNW 3.5 mph - N/A Fog Fog
2:55 AM 45.0 °F - 44.2 °F 97% 29.82 in 0.2 mi Calm Calm - N/A Fog Fog
3:15 AM 45.0 °F - 44.2 °F 97% 29.82 in 0.2 mi Calm Calm - N/A Fog Fog
3:35 AM 45.0 °F - 44.2 °F 97% 29.80 in 0.2 mi Calm Calm - N/A Fog Fog
3:55 AM 45.0 °F - 44.2 °F 97% 29.80 in 0.2 mi Calm Calm - N/A Fog Fog
4:15 AM 45.0 °F - 44.2 °F 97% 29.81 in 0.2 mi Calm Calm - N/A Fog Fog
4:35 AM 45.1 °F 42.8 °F 44.6 °F 98% 29.83 in 0.2 mi WNW 4.6 mph - N/A Fog Fog
4:55 AM 44.8 °F 40.4 °F 44.2 °F 98% 29.83 in 0.2 mi NW 8.1 mph - N/A Fog Fog
5:15 AM 43.7 °F 39.7 °F 43.2 °F 98% 29.84 in 0.5 mi NNW 6.9 mph - N/A Fog Fog
5:35 AM 43.3 °F 40.7 °F 42.8 °F 98% 29.84 in 0.5 mi NW 4.6 mph - N/A Fog Fog
5:55 AM 43.3 °F 40.7 °F 42.8 °F 98% 29.85 in 0.5 mi NW 4.6 mph - N/A Fog Fog
6:15 AM 43.3 °F - 42.8 °F 98% 29.85 in 0.2 mi Calm Calm - N/A Fog Fog
6:35 AM 43.7 °F 40.3 °F 43.0 °F 97% 29.86 in 0.2 mi NW 5.8 mph - N/A Fog Fog
6:55 AM 43.3 °F 39.9 °F 42.8 °F 98% 29.87 in 0.5 mi NW 5.8 mph - N/A Rain Light Rain
7:15 AM 43.0 °F 38.2 °F 42.4 °F 98% 29.87 in 1.2 mi NW 8.1 mph - N/A Rain Light Rain
7:35 AM 42.8 °F 37.5 °F 42.3 °F 98% 29.88 in 1.2 mi NW 9.2 mph - N/A   Overcast
7:55 AM 42.6 °F 37.8 °F 42.1 °F 98% 29.89 in 1.5 mi NW 8.1 mph - N/A   Overcast
8:15 AM 42.1 °F 38.4 °F 41.5 °F 98% 29.90 in 1.5 mi NW 5.8 mph - N/A   Overcast
8:35 AM 42.8 °F 38.0 °F 42.8 °F 100% 29.91 in 1.5 mi NW 8.1 mph - N/A   Overcast
8:55 AM 41.9 °F 35.9 °F 41.4 °F 98% 29.92 in 1.0 mi NW 10.4 mph - N/A   Overcast
9:15 AM 41.7 °F 38.0 °F 41.2 °F 98% 29.93 in 0.8 mi NNW 5.8 mph - N/A   Overcast
9:35 AM 41.0 °F 35.8 °F 41.0 °F 100% 29.93 in 0.5 mi NNW 8.1 mph - N/A Fog Fog
9:55 AM 42.1 °F 36.6 °F 41.5 °F 98% 29.93 in 0.5 mi North 9.2 mph - N/A Fog Fog
10:15 AM 42.1 °F 36.1 °F 41.5 °F 98% 29.94 in 1.0 mi NW 10.4 mph - N/A   Overcast
10:35 AM 41.9 °F 38.2 °F 41.4 °F 98% 29.94 in 2.0 mi NNW 5.8 mph - N/A   Overcast
10:55 AM 41.9 °F 36.9 °F 41.4 °F 98% 29.93 in 2.5 mi NW 8.1 mph - N/A   Overcast
11:15 AM 42.4 °F 38.1 °F 41.7 °F 97% 29.93 in 3.0 mi NNW 6.9 mph - N/A   Overcast
11:35 AM 41.9 °F 37.5 °F 41.2 °F 97% 29.93 in 4.0 mi NNW 6.9 mph - N/A   Overcast
11:55 AM 42.6 °F 39.0 °F 41.7 °F 97% 29.94 in 4.0 mi NNW 5.8 mph - N/A   Overcast
12:15 PM 42.8 °F 39.3 °F 41.4 °F 95% 29.94 in 5.0 mi North 5.8 mph - N/A   Overcast
12:35 PM 43.5 °F 40.9 °F 41.0 °F 91% 29.94 in 5.0 mi North 4.6 mph - N/A   Overcast
12:55 PM 43.9 °F 40.5 °F 41.2 °F 90% 29.95 in 7.0 mi North 5.8 mph - N/A   Overcast
1:15 PM 43.7 °F 41.1 °F 40.8 °F 90% 29.95 in 7.0 mi North 4.6 mph - N/A   Overcast
1:35 PM 43.7 °F 41.1 °F 40.5 °F 88% 29.95 in 7.0 mi NNW 4.6 mph - N/A   Overcast
1:55 PM 43.5 °F 40.1 °F 40.6 °F 90% 29.95 in 7.0 mi NNW 5.8 mph - N/A   Overcast
2:15 PM 43.3 °F 40.7 °F 40.6 °F 90% 29.96 in 7.0 mi NW 4.6 mph - N/A   Overcast
2:35 PM 42.8 °F 39.3 °F 41.0 °F 93% 29.96 in 7.0 mi North 5.8 mph - N/A   Overcast
2:55 PM 43.2 °F 38.4 °F 40.3 °F 90% 29.96 in 7.0 mi North 8.1 mph - N/A   Overcast
3:15 PM 43.0 °F 39.5 °F 40.1 °F 90% 29.97 in 10.0 mi North 5.8 mph - N/A   Overcast
3:35 PM 42.8 °F 38.0 °F 41.0 °F 93% 29.98 in 10.0 mi North 8.1 mph - N/A   Overcast
3:55 PM 42.8 °F 38.0 °F 40.1 °F 90% 29.98 in 7.0 mi North 8.1 mph - N/A   Overcast
4:15 PM 42.3 °F 37.3 °F 40.1 °F 92% 29.98 in 7.0 mi North 8.1 mph - N/A   Overcast
4:35 PM 41.4 °F 37.6 °F 39.4 °F 93% 30.00 in 10.0 mi North 5.8 mph - N/A   Mostly Cloudy
4:55 PM 41.4 °F 37.6 °F 39.4 °F 93% 29.98 in 10.0 mi NE 5.8 mph - N/A   Mostly Cloudy
5:15 PM 41.2 °F 36.6 °F 38.8 °F 91% 30.00 in 10.0 mi North 6.9 mph - N/A   Scattered Clouds
5:35 PM 40.3 °F 35.5 °F 38.3 °F 93% 30.00 in 10.0 mi NNE 6.9 mph - N/A   Scattered Clouds
5:55 PM 41.0 °F 37.1 °F 38.3 °F 90% 30.00 in 10.0 mi NE 5.8 mph - N/A   Clear
6:15 PM 40.5 °F 35.8 °F 38.3 °F 92% 30.00 in 10.0 mi NE 6.9 mph - N/A   Clear
6:35 PM 40.1 °F 35.3 °F 37.8 °F 91% 30.00 in 10.0 mi NE 6.9 mph - N/A   Clear
6:55 PM 39.7 °F 34.3 °F 37.4 °F 91% 30.00 in 10.0 mi NE 8.1 mph - N/A   Clear
7:15 PM 39.6 °F 34.0 °F 37.0 °F 91% 30.02 in 10.0 mi NNE 8.1 mph - N/A   Clear
7:35 PM 39.2 °F 33.0 °F 36.7 °F 91% 30.02 in 10.0 mi NE 9.2 mph - N/A   Clear
7:55 PM 38.8 °F 33.2 °F 36.5 °F 91% 30.02 in 10.0 mi NE 8.1 mph - N/A   Clear
8:15 PM 38.8 °F 33.8 °F 36.3 °F 91% 30.02 in 10.0 mi NE 6.9 mph - N/A   Clear
8:35 PM 38.7 °F 32.9 °F 36.1 °F 91% 30.02 in 10.0 mi NE 8.1 mph - N/A   Clear
8:55 PM 38.5 °F 32.1 °F 36.3 °F 92% 30.01 in 10.0 mi NE 9.2 mph - N/A   Scattered Clouds
9:15 PM 38.3 °F 33.2 °F 36.3 °F 93% 30.02 in 10.0 mi ENE 6.9 mph - N/A   Mostly Cloudy
9:35 PM 39.2 °F 33.6 °F 37.4 °F 93% 30.01 in 10.0 mi ENE 8.1 mph - N/A   Scattered Clouds
9:55 PM 38.3 °F 32.5 °F 36.5 °F 93% 30.01 in 7.0 mi ENE 8.1 mph - N/A   Mostly Cloudy
10:15 PM 38.3 °F 31.9 °F 36.1 °F 92% 30.01 in 7.0 mi NE 9.2 mph - N/A   Mostly Cloudy
10:35 PM 39.2 °F 33.0 °F 35.6 °F 87% 30.01 in 7.0 mi NE 9.2 mph - N/A   Overcast
10:55 PM 38.3 °F 32.5 °F 36.0 °F 91% 30.01 in 7.0 mi ENE 8.1 mph - N/A   Overcast
11:15 PM 38.3 °F 33.2 °F 36.1 °F 92% 30.01 in 7.0 mi ENE 6.9 mph - N/A   Overcast
11:35 PM 38.3 °F 31.9 °F 36.3 °F 93% 30.00 in 7.0 mi ENE 9.2 mph - N/A   Overcast
11:55 PM 38.7 °F 31.8 °F 36.3 °F 91% 29.99 in 7.0 mi East 10.4 mph - N/A   Overcast